Location: Unspecified
(0.0000°N, 0.0000°E)
Time: 12:37:07
(UTC+00:00)

AO-85 - Visible Passes

Search period start: 21 January 2018 00:00
Search period end: 31 January 2018 00:00
Orbit: 509 x 777 km, 64.8° (Epoch: 18 January)

Date Brightness Start Highest point End Pass type
(mag) Time Alt. Az. Time Alt. Az. Time Alt. Az.
29 Jan ? 20:16:32 10° NNW 20:28:29 - SSE 20:20:25 46° NW visible
30 Jan ? 19:02:08 10° NNE 19:06:34 26° ENE 19:11:00 10° SE visible
30 Jan ? 20:42:44 10° WNW 20:46:48 22° WSW 20:50:51 10° SSW visible
